Regional Weather Roundup
Issued by NWS Green Bay, WI

Home | Current Version | Previous Version | Graphics & Text | Print | Product List | Glossary On
Versions: 1 2 3 4 5 6 7 8 9 10 11 12 13 14 15 16 17 18 19 20 21 22 23 24 25 26 27 28 29 30 31 32 33 34 35 36 37 38 39 40 41 42 43 44 45 46 47 48 49 50
000
ASUS43 KGRB 101611
RWRGRB

NORTH-CENTRAL AND NORTHEAST WISCONSIN REGIONAL WEATHER ROUNDUP
NATIONAL WEATHER SERVICE GREEN BAY WI
1000 AM CST SAT DEC 10 2016

WIZ005-009-010>012-018-019-101700-
NORTH CENTRAL WISCONSIN

CITY           SKY/WX    TMP DP  RH WIND       PRES   REMARKS
IRONWOOD       LGT SNOW   6   0  76 SW10      30.41R WCI  -9
MANITOWISH WTR MOSUNNY    3  -3  73 NW9       30.37R WCI -11
ARBOR VITAE    MOSUNNY    6  -1  71 W7        30.38R WCI  -5
EAGLE RIVER    MOSUNNY    7  -2  65 W10       30.36R WCI  -7
LAND O LAKES   MOSUNNY    9   0  65 W8        30.36R WCI  -3
RHINELANDER    MOSUNNY    8  -2  63 W10       30.38R WCI  -6
PHILLIPS       CLOUDY     6  -3  67 SW5       30.39F WCI  -3
ANTIGO         CLOUDY     8   1  73 NW7       30.39S WCI  -4
TOMAHAWK       MOSUNNY    7  -2  66 W3        30.40S
MERRILL        CLOUDY     9   0  67 NW3       30.43S
$$

WIZ013-073-101700-
NORTHEAST WISCONSIN

CITY           SKY/WX    TMP DP  RH WIND       PRES   REMARKS
IRON MOUNTAIN  SUNNY     12  -1  56 NW10      30.35F WCI  -1
MARINETTE      SUNNY     16   2  54 NW8       30.44  WCI   5
OCONTO         CLOUDY    15   3  59 W14G20    30.45R WCI   0
$$

WIZ017-030-035>037-045-101700-
CENTRAL WISCONSIN

CITY           SKY/WX    TMP DP  RH WIND       PRES   REMARKS
MEDFORD        CLOUDY     8  -1  66 W6        30.40S WCI  -2
WAUSAU         CLOUDY    10   1  67 NW8       30.42R WCI  -2
MOSINEE        FLURRIES  10   5  79 W7        30.43R WCI   0
MARSHFIELD     CLOUDY    11   1  64 NW7       30.41F WCI   0
WISC RAPIDS    MOSUNNY   13   6  74 NW8       30.46S WCI   2
STEVENS POINT  CLOUDY    11   0  61 W7G16     30.45R WCI   0
WAUPACA        MOSUNNY   19   5  54 W7        30.47R WCI   9
SHAWANO        CLOUDY    17   4  58 NW9       30.45R WCI   5
CLINTONVILLE   CLOUDY    18   5  57 W7        30.45S WCI   8
WAUTOMA        SUNNY     13   7  77 W7        30.47F WCI   3
$$

WIZ038-039-048-051-101700-
FOX VALLEY

CITY           SKY/WX    TMP DP  RH WIND       PRES   REMARKS
NWS GREEN BAY  MOSUNNY   19   5  54 NW12      30.45S WCI   7
APPLETON       PTSUNNY   16   1  53 W14       30.43S WCI   1
OSHKOSH        SUNNY     15   8  73 W8        30.46S WCI   4
FOND DU LAC    SUNNY     16   8  71 W12       30.47S WCI   3
$$

WIZ022-050-052-101700-
EAST CENTRAL WISCONSIN

CITY           SKY/WX    TMP DP  RH WIND       PRES   REMARKS
EPHRAIM        FAIR      16   3  57 NW12G17   30.40S WCI   3
WASHINGTON ISL PTSUNNY   17   6  64 W12G17    30.40S WCI   4
STURGEON BAY   CLOUDY    16   5  62 W12       30.43S WCI   3
MANITOWOC      FLURRIES  18   8  65 MISG      30.45F
SHEBOYGAN      PTSUNNY   18   9  68 W13       30.46S WCI   5
$$

LMZ563-521-522-541>543-101700-
LAKESHORE

STATION/POSITION TIME  TEMP    WIND        PRES    VSBY  WAVE
                       AIR SEA DIR/SP/G                  HT/PER
                 (UTC) (F)     (DEG/KT/KT) (MB)    (MI)  (FT/S)
SHEBOYGAN LKSHOR 1600   17     270/ 12/ 15 1032.9R
KEWAUNEE LKSHORE 1548   17     280/  7/ 11 1029.9R
ALGOMA MARINA    1536          300/  8/ 12   N/A
NORTHPORT PIER   1556   17     280/  8/ 20 1029.5F
SISTER BAY LKSHO 1520   17     320/ 21/ 29   N/A
CHAMBERS ISLAND  1540   17     280/  8/ 15 1029.5R
MENOMINEE LKSHOR 1548   15     250/  9/ 13 1029.7R
$$



USA.gov is the U.S. government's official web portal to all federal, state and local government web resources and services.